パンスターズ彗星

C/2023 Q1 ( PanSTARRS )

English version
Home page
Updated on October 1, 2025

---------------------------------------------------------------------

・ プロフィール

発見日 2023年8月20日
発見光度 22.0等
発見者 Pan-STARRS 1 telescope (Haleakala)

・ 写真集

・ 軌道要素

Epoch 2025 May 5.0 TT = JDT 2460800.5
T 2024 Dec. 1.13071 TT                                  Pike
q   2.5757907            (2000.0)            P               Q
z  -0.0019566      Peri.   84.41772     -0.00252164     -0.99725299
 +/-0.0000009      Node     7.12484     +0.50178226     -0.06529561
e   1.0050399      Incl.   36.64435     +0.86499029     +0.03497087
From 1409 observations 2023 July 25-2025 May 14, mean residual 1".0.

・ 星図

・ 光度変化

        m1 = 8.5 + 5 logΔ + 12.0 log r

---------------------------------------------------------------------

軌道要素はM.P.E.C. 2025-M120に掲載されたものです。
星図はステラナビゲータ Ver.11 (アストロアーツ) で作成したものです。
光度グラフはComet for Windowsで作成したものです。

---------------------------------------------------------------------

Copyright(C) Seiichi Yoshida (comet@aerith.net). All rights reserved.